{"data":{"norad_id":62884,"epoch":"2026-05-25T04:07:17.364000Z","epoch_age_seconds":56296,"freshness":"FRESH","line1":"1 62884U 25024F   26145.17172875  .00177016  00000+0  13486-2 0  9992","line2":"2 62884  43.0024  80.5877 0003271 251.1162 108.9351 15.70928868 75495","mean_motion":15.70928868,"eccentricity":0.0003271,"inclination_deg":43.0024,"raan_deg":80.5877,"arg_perigee_deg":251.1162,"mean_anomaly_deg":108.9351,"bstar":0.0013486,"rev_number":7549,"period_min":91.665512636057,"perigee_km":354.03825709943,"apogee_km":358.44388723424,"semimajor_km":6734.3780721668,"source":"CELESTRAK","updated_at":"2026-05-25T13:38:19.789140Z"}}